Location: Acequia del Cap
(41.7000°N, 0.6167°E)
Time: 23:30:00
(UTC+00:00)

Cosmos 2219 Rocket - Pass Details

Date: 07 August 2020
Orbit: 826 x 848 km, 71.0° (Epoch: 22 September)

Event Time Altitude Azimuth Distance (km) Brightness Sun altitude
Rises 01:48:32 0° 322° (NW) 3,414 5.7 -27.1°
Reaches altitude 10° 01:51:28 10° 308° (NW) 2,476 4.7 -26.8°
Enters shadow 01:53:24 17° 291° (WNW) 1,999 4.0 -26.6°
